Regional Weather Roundup
Issued by NWS

Home | Current Version | Previous Version | Text Only | Print | Product List | Glossary Off
Versions: 1 2 3 4 5 6 7 8 9 10 11 12 13 14 15 16 17 18 19 20 21 22 23 24 25 26 27 28 29 30 31 32 33 34 35 36 37 38 39 40 41 42 43 44 45 46 47 48 49 50

000
ASUS43 KOAX 041202
RWRNE

WEATHER ROUNDUP FOR NEBRASKA
NATIONAL WEATHER SERVICE OMAHA NE
700 AM CDT WED MAY 04 2016

NOTES: SATELLITE DATA IS BEING USED TO AUGMENT CLOUD COVER ABOVE
       12000 FEET.
       "FAIR" INDICATES FEW OR NO CLOUDS BELOW 12,000 FEET WITH NO
       SIGNIFICANT WEATHER AND/OR OBSTRUCTIONS TO VISIBILITY.

  * THESE STATIONS DO NOT REPORT WEATHER SUCH AS RAIN...SNOW OR FOG.

NEZ001>004-019>022-054>056-041300-
NEBRASKA PANHANDLE

CITY           SKY/WX    TMP DP  RH WIND       PRES   REMARKS
SCOTTSBLUFF    CLEAR     41  37  86 NW9       30.19R
6HR MIN TEMP:  41; 6HR MAX TEMP:  49;

ALLIANCE       CLEAR     34  33  96 W7        30.17R WCI  28
6HR MIN TEMP:  34; 6HR MAX TEMP:  40;

CHADRON        CLEAR     39  36  89 CALM      30.17R
6HR MIN TEMP:  37; 6HR MAX TEMP:  46;

KIMBALL        CLEAR     37  35  93 W7        30.22R WCI  31
SIDNEY         CLEAR     37  34  89 W9        30.19S WCI  30
6HR MIN TEMP:  37; 6HR MAX TEMP:  42;

$$

NEZ057>060-069>072-079>082-041300-
SOUTHWEST NEBRASKA

CITY           SKY/WX    TMP DP  RH WIND       PRES   REMARKS
NORTH PLATTE   CLEAR     39  37  92 NW3       30.13R
6HR MIN TEMP:  37; 6HR MAX TEMP:  43;

IMPERIAL       CLEAR     46  37  71 NW10      30.14R
6HR MIN TEMP:  45; 6HR MAX TEMP:  49;

LEXINGTON      CLEAR     42  39  88 W6        30.11R
MCCOOK         CLEAR     42  37  82 W7        30.12R
6HR MIN TEMP:  40; 6HR MAX TEMP:  46;

$$

NEZ005>010-023>029-035>040-094-041300-
NORTH CENTRAL NEBRASKA

CITY           SKY/WX    TMP DP  RH WIND       PRES   REMARKS
VALENTINE      CLEAR     38  34  85 W3        30.13R
6HR MIN TEMP:  37; 6HR MAX TEMP:  48;

AINSWORTH      CLEAR     41  36  83 NW6       30.12R
BROKEN BOW     CLEAR     44  38  79 N9        30.09R
6HR MIN TEMP:  43; 6HR MAX TEMP:  56;

ORD            CLEAR     42  38  85 NW9       30.07R
6HR MIN TEMP:  40; 6HR MAX TEMP:  49;

$$

NEZ041-046>049-061>064-073>077-083>087-041300-
SOUTH CENTRAL NEBRASKA

CITY           SKY/WX    TMP DP  RH WIND       PRES   REMARKS
GRAND ISLAND   CLEAR     46  38  73 N9        30.06R
6HR MIN TEMP:  43; 6HR MAX TEMP:  52;

AURORA         CLEAR     44  39  82 N9        30.05R
HASTINGS       CLEAR     46  40  79 NW9       30.05R
6HR MIN TEMP:  46; 6HR MAX TEMP:  54;

KEARNEY *      CLEAR     46  37  71 NW5       30.08R
YORK           CLEAR     46  37  71 N9        30.04R
$$

NEZ011>018-030>034-042>045-041300-
NORTHEAST NEBRASKA

CITY           SKY/WX    TMP DP  RH WIND       PRES   REMARKS
NORFOLK        CLEAR     43  35  73 NW8       30.04R
6HR MIN TEMP:  43; 6HR MAX TEMP:  54;

ALBION         CLEAR     38  34  84 NW7       30.06R WCI  33
BLAIR          CLEAR     49  35  57 N10       29.98R
COLUMBUS *     CLEAR     46  30  53 NW13      30.04R
FREMONT        CLEAR     46  37  70 NW7       30.01R
TEKAMAH        CLEAR     45  37  73 NW9       30.00R
6HR MIN TEMP:  44; 6HR MAX TEMP:  54;

$$

NEZ050>053-065>068-078-088>093-041300-
SOUTHEAST NEBRASKA

CITY           SKY/WX    TMP DP  RH WIND       PRES   REMARKS
LINCOLN        CLEAR     50  36  58 NW10      30.01R
6HR MIN TEMP:  50; 6HR MAX TEMP:  61;

OMAHA EPPLEY   CLEAR     48  37  65 N10       29.97R
6HR MIN TEMP:  47; 6HR MAX TEMP:  61;

FALLS CITY     CLEAR     50  40  68 NW10      29.93R
6HR MIN TEMP:  48; 6HR MAX TEMP:  58;

$$

NEZ044-045-051>053-067-041300-
OMAHA AREA

CITY           SKY/WX    TMP DP  RH WIND       PRES   REMARKS
OMAHA EPPLEY   CLEAR     48  37  65 N10       29.97R
6HR MIN TEMP:  47; 6HR MAX TEMP:  61;

BLAIR          CLEAR     49  35  57 N10       29.98R
FREMONT        CLEAR     46  37  70 NW7       30.01R
OFFUTT AFB     CLEAR     50  35  56 NW6       29.96R
$$




USA.gov is the U.S. government's official web portal to all federal, state and local government web resources and services.